Regional Weather Roundup
Issued by NWS

Home | Current Version | Previous Version | Graphics & Text | Print | Product List | Glossary On
Versions: 1 2 3 4 5 6 7 8 9 10 11 12 13 14 15 16 17 18 19 20 21 22 23 24 25 26 27 28 29 30 31 32 33 34 35 36 37 38 39 40 41 42 43 44 45 46 47 48 49 50
115
ASUS45 KCYS 300010
RWRWY

WYOMING REGIONAL WEATHER ROUNDUP
NATIONAL WEATHER SERVICE CHEYENNE WY
600 PM MDT SAT APR 29 2017

NOTE:  "FAIR" INDICATES FEW OR NO CLOUDS BELOW 12,000 FEET
WITH NO SIGNIFICANT WEATHER AND/OR OBSTRUCTIONS TO VISIBILITY.

WYZ001-300100-
YELLOWSTONE NATIONAL PARK

CITY           SKY/WX    TMP DP  RH WIND       PRES   REMARKS
LK YELLOWSTONE   N/A     35  23  61 E3        30.18F
6HR MIN TEMP:  33; 6HR MAX TEMP:  38;

W YELLOWSTONE  NOT AVBL

$$
WYZ002>013-054>058-071-098>099-300100-
NORTHERN WYOMING

CITY           SKY/WX    TMP DP  RH WIND       PRES   REMARKS
JACKSON        SUNNY     46  16  29 W10       30.15F
CODY           FAIR      48  24  39 S13       30.15F
GREYBULL       FAIR      54  20  26 S9        30.13F
6HR MIN TEMP:  47; 6HR MAX TEMP:  54;

WORLAND        FAIR      50  25  37 VRB5      30.16F
6HR MIN TEMP:  45; 6HR MAX TEMP:  51;

SHERIDAN       FAIR      44  31  60 S8        30.19S
6HR MIN TEMP:  41; 6HR MAX TEMP:  44;

BUFFALO        FAIR      38  26  62 SE9       30.20R WCI  31
6HR MIN TEMP:  37; 6HR MAX TEMP:  39;

GILLETTE       FAIR      37  28  70 SW5       30.20F WCI  33
6HR MIN TEMP:  37; 6HR MAX TEMP:  39;

HULETT         CLOUDY    48  23  37 W5        30.18F
NEWCASTLE      FAIR      46  23  39 NW15G23   30.17S

$$
WYZ014>020-022>026-101>103-300100-
CENTRAL WYOMING

CITY           SKY/WX    TMP DP  RH WIND       PRES   REMARKS
BIG PINEY      PTSUNNY   43  20  39 SW10      30.17F
6HR MIN TEMP:  35; 6HR MAX TEMP:  45;

PINEDALE       CLOUDY    43  16  33 NW8       30.17F
DUBOIS         MOCLDY    41  19  42 N9        30.14S
LANDER         FAIR      37  23  56 S8        30.17F WCI  31
6HR MIN TEMP:  33; 6HR MAX TEMP:  37;

RIVERTON       FAIR      41  26  55 S12       30.18F
6HR MIN TEMP:  33; 6HR MAX TEMP:  42;

CASPER         CLOUDY    42  17  36 NE5       30.18F
6HR MIN TEMP:  38; 6HR MAX TEMP:  45;

DOUGLAS        FAIR      40  18  41 E6        30.22S
6HR MIN TEMP:  36; 6HR MAX TEMP:  43;


$$
WYZ021-027>030-104>119-300100-
SOUTHERN WYOMING

CITY           SKY/WX    TMP DP  RH WIND       PRES   REMARKS
EVANSTON       CLOUDY    38  22  52 N5        30.21S WCI  34
6HR MIN TEMP:  31; 6HR MAX TEMP:  40;

KEMMERER         N/A     39  23  52 W6        30.21S WCI  35
FORT BRIDGER   FAIR      43  23  45 NW7       30.24S
ROCK SPRINGS   FAIR      42  17  36 NE6       30.18S
6HR MIN TEMP:  36; 6HR MAX TEMP:  43;

DIXON            N/A     41  19  41 N21G28    30.14R
RAWLINS        CLOUDY    35  23  61 N16       30.18R WCI  25
6HR MIN TEMP:  32; 6HR MAX TEMP:  38;

SARATOGA       CLOUDY    36  16  44 NE9G17    30.14S WCI  29
LARAMIE        PTSUNNY   27  18  69 NE6       30.16F WCI  20
6HR MIN TEMP:  23; 6HR MAX TEMP:  28; 6HR PCP:  0.01;

CHEYENNE       CLOUDY    32  15  49 NE14      30.16F WCI  22
6HR MIN TEMP:  30; 6HR MAX TEMP:  33; 6HR PCP: TRACE;

TORRINGTON     FAIR      45  21  38 NW9       30.17F
6HR MIN TEMP:  41; 6HR MAX TEMP:  46;

PINE BLUFFS    CLOUDY    36  18  48 N15       30.17F WCI  26

$$




USA.gov is the U.S. government's official web portal to all federal, state and local government web resources and services.